This demonstration page uses our WeatherBlox Daily Observations layout. Learn more.

Left ArrowRight Arrow

Hourly Observations for February 27, 2015

Temp ( °F °C ) Dew Point ( °F °C ) Humidity (%) Winds ( mph kmh ) Pressure ( in mb ) Visibility ( mi km ) Precip ( " mm )
12:51 am 00:51 Clear 49 9.4 25 -3.9 39 39 NW 5 7 29.74 1007 10 16 0.00 0.00
1:51 am 01:51 Clear 43 6.1 29 -1.7 58 58 SE 7 11 29.76 1008 10 16 0.00 0.00
2:51 am 02:51 Clear 44 6.7 30 -1.1 58 58 ESE 9 15 29.76 1008 10 16 0.00 0.00
3:51 am 03:51 Clear 43 6.1 30 -1.1 60 60 SE 10 17 29.76 1008 10 16 0.00 0.00
4:51 am 04:51 Clear 44 6.7 29 -1.7 55 55 SE 12 19 29.76 1008 10 16 0.00 0.00
5:51 am 05:51 Clear 43 6.1 29 -1.7 58 58 SSE 13 20 29.77 1008 10 16 0.00 0.00
6:51 am 06:51 Sunny 42 5.6 28 -2.2 58 58 SE 14 22 29.81 1010 10 16 0.00 0.00
7:51 am 07:51 Sunny 45 7.2 28 -2.2 52 52 ESE 13 20 29.81 1010 10 16 0.00 0.00
8:51 am 08:51 Sunny 49 9.4 27 -2.8 43 43 ESE 15 24 29.82 1010 10 16 0.00 0.00
9:51 am 09:51 Sunny 51 10.6 27 -2.8 39 39 E 18 30 29.81 1009 10 16 0.00 0.00
10:51 am 10:51 Sunny 55 12.8 26 -3.3 33 33 E 13 20 29.81 1010 10 16 0.00 0.00
11:51 am 11:51 Sunny 58 14.4 27 -2.8 31 31 ESE 12 19 29.78 1008 10 16 0.00 0.00
12:51 pm 12:51 Sunny 60 15.6 26 -3.3 27 27 E 8 13 29.72 1007 10 16 0.00 0.00
1:51 pm 13:51 Sunny 65 18.3 26 -3.3 23 23 E 9 15 29.67 1005 10 16 0.00 0.00
2:51 pm 14:51 Sunny 67 19.4 24 -4.4 20 20 VRB 6 9 29.62 1003 10 16 0.00 0.00
3:51 pm 15:51 Sunny 68 20 24 -4.4 19 19 S 3 6 29.59 1002 10 16 0.00 0.00
4:51 pm 16:51 Sunny 68 20 24 -4.4 19 19 ESE 3 6 29.58 1002 10 16 0.00 0.00
5:51 pm 17:51 Sunny 65 18.3 27 -2.8 24 24 E 3 6 29.59 1002 10 16 0.00 0.00
6:51 pm 18:51 Clear 59 15 30 -1.1 33 33 E 7 11 29.62 1003 10 16 0.00 0.00
7:51 pm 19:51 Clear 57 13.9 30 -1.1 36 36 Calm 29.64 1004 10 16 0.00 0.00
8:51 pm 20:51 Mostly Cloudy 59 15 30 -1.1 33 33 NNW 6 9 29.65 1004 10 16 0.00 0.00
9:51 pm 21:51 Clear 59 15 30 -1.1 33 33 S 5 7 29.66 1005 10 16 0.00 0.00
10:51 pm 22:51 Mostly Cloudy 56 13.3 30 -1.1 37 37 Calm 29.67 1005 10 16 0.00 0.00
11:51 pm 23:51 Partly Cloudy 53 11.7 31 -0.6 43 43 E 7 11 29.68 1005 10 16 0.00 0.00

Powered by AerisWeather